Location: Fafina
(42.4167°N, 24.0000°E)
Time: 00:04:01
(UTC+00:00)

Daily predictions for brighter satellites

Satellite Brightness Start Highest point End
(mag) Time Altitude Azimuth Time Altitude Azimuth Time Altitude Azimuth
Cosmos 1417 Rocket 4.4 00:05:08 52° S 00:06:46 81° E 00:12:55 10° N
CENTAUR R/B 3.6 00:08:14 23° SE 00:09:46 26° ESE 00:14:49 10° NE
Cosmos 2297 Rocket 4.1 00:14:23 16° WNW 00:16:38 19° NW 00:20:38 10° N
STPSAT 2 (USA 217) 4.4 00:20:23 75° WSW 00:20:38 79° WNW 00:25:09 10° NNE
Cosmos 2082 3.7 00:21:51 48° S 00:23:21 71° ESE 00:28:57 10° NNE
Cosmos 1844 Rocket 4.0 00:24:56 22° SSE 00:27:26 32° ESE 00:32:20 10° NE
ADEOS II 4.0 00:30:29 10° NE 00:34:34 23° E 00:38:37 10° SE
Cosmos 1340 Rocket 3.7 00:31:46 10° NNW 00:34:29 35° WNW 00:34:29 35° WNW
S3M 3.9 00:34:01 42° SSW 00:36:09 71° W 00:42:19 10° N
Meteor 1-13 Rocket 4.2 00:34:39 40° S 00:36:46 81° E 00:42:30 10° NNE
NOSS 2-2 (D) 4.3 00:38:01 29° ESE 00:38:01 29° ESE 00:40:47 10° ENE
Cosmos 2084 3.6 00:35:25 10° NNW 00:39:31 66° NE 00:43:35 10° SE
Atlas Centaur 2 3.7 00:38:39 28° S 00:39:37 29° SSE 00:46:17 10° ESE
Resurs 1-4 Rocket 3.2 00:35:18 10° NNE 00:40:13 39° E 00:43:26 19° SSE
Cosmos 2315 Rocket 4.0 00:39:28 37° SSW 00:42:12 81° W 00:48:35 10° N
Cosmos 1151 Rocket 4.3 00:42:31 26° WNW 00:42:31 26° WNW 00:46:05 10° NNW
BREEZE-M DEB (TANK) 3.2 00:32:37 10° WNW 00:44:03 70° SW 00:47:30 10° SE
Cosmos 1633 Rocket 3.4 00:40:15 10° N 00:44:33 61° E 00:46:41 28° SSE
Cosmos 1703 3.8 00:47:45 34° NW 00:47:45 34° NW 00:50:06 10° N
Lacrosse 4 Rocket 3.9 00:46:10 10° NW 00:47:09 11° NW 00:48:07 10° NNW
USA 281 3.5 00:48:19 10° SE 00:54:48 68° ENE 01:01:20 10° NNW
BlueWalker 3 4.0 00:52:58 13° WNW 00:54:57 20° NNW 00:57:38 10° NNE
Cosmos 1570 Rocket 4.2 00:53:41 38° SW 00:55:25 57° WNW 01:00:39 10° NNE
BREEZE-M DEB (TANK) 3.8 00:48:17 10° W 00:56:39 41° NNW 00:59:54 10° NE
ADEOS Rocket 3.6 00:51:14 10° N 00:58:51 65° WNW 01:02:53 28° SW
Cosmos 1844 4.2 00:56:37 24° S 00:59:53 54° ESE 01:05:29 10° NNE
ACS3 Solar Sail 3.5 00:57:07 10° NNW 01:00:47 17° WNW 01:03:08 14° W
FENGYUN 3A 4.1 00:57:17 10° N 01:02:28 48° WNW 01:04:35 32° WSW
Cosmos 2219 3.6 01:00:18 31° WSW 01:02:36 49° WNW 01:08:03 10° NNE
SL-16 R/B 2.7 00:58:46 10° NW 01:03:59 38° WSW 01:05:32 32° SW
USA 307 2.2 01:05:40 55° SE 01:05:40 55° SE 01:08:39 10° SE
Cosmos 1125 Rocket 4.2 01:01:41 10° NW 01:06:21 32° W 01:07:06 31° WSW
Cosmos 1953 2.3 01:04:27 10° NNW 01:07:57 46° W 01:08:12 45° WSW
Tiangong -2.3 01:08:08 71° SW 01:08:17 74° S 01:11:27 10° E
Cosmos 1709 Rocket 4.3 01:02:58 10° NNW 01:08:51 47° W 01:11:53 27° SSW
ATLAS 2AS CENTAUR R/B 2.9 01:05:46 10° NNW 01:12:33 73° NE 01:19:21 10° SE
NOAA 11 4.4 01:09:36 10° N 01:14:57 58° WNW 01:17:48 27° SW
Cosmos 1666 Rocket 3.8 01:10:46 10° NNW 01:15:03 49° W 01:16:40 32° SSW
CZ-2D R/B 2.3 01:09:55 10° NNE 01:15:20 73° ESE 01:19:22 19° S
NPP 4.5 01:11:41 10° N 01:16:34 36° WNW 01:18:56 24° WSW
Cosmos 2150 Rocket 4.0 01:15:58 10° NNW 01:21:25 76° WSW 01:26:50 10° SSE
H-2A R/B 2.5 01:17:56 10° SSE 01:21:26 62° ENE 01:24:59 10° N
IDEFIX/ARIANE 42P 3.9 01:17:33 10° NNW 01:21:41 24° WNW 01:23:52 19° W
Cosmos 2227 Rocket 4.3 01:24:05 10° WNW 01:26:56 14° NW 01:29:47 10° NNW
ALOS 2.1 01:24:09 10° NNE 01:28:43 84° WNW 01:31:48 21° SSW
Cosmos 783 Rocket 4.4 01:25:54 23° SSW 01:29:11 80° WNW 01:34:26 10° NNE
Meteor 1-12 Rocket 4.3 01:25:29 10° N 01:31:12 84° E 01:36:50 10° S
ARGOS 4.4 01:27:29 10° NNE 01:32:29 39° E 01:37:27 10° SSE
MOZ.5/SAFIR/RUBIN 5/SL-8 4.2 01:30:36 23° SSW 01:32:52 39° W 01:37:10 10° NNW
H-2A R/B 2.2 01:27:33 10° NNE 01:32:59 86° ESE 01:37:40 14° SSW
Cosmos 1515 Rocket 3.6 01:32:58 21° SSW 01:35:48 68° W 01:40:13 10° N
Cosmos 2227 4.3 01:32:37 22° SW 01:36:25 69° WNW 01:42:10 10° NNE
NOSS 2-2 (E) 2.8 01:35:40 28° SW 01:37:25 86° NW 01:40:30 10° NE
DMSP B5D2-2 4.3 01:33:59 15° S 01:38:07 48° W 01:43:11 10° NNW
Cosmos 2263 Rocket 4.1 01:36:37 10° W 01:40:02 16° NW 01:43:26 10° N
IRIDIUM 104 4.3 01:39:48 10° N 01:45:03 82° W 01:50:15 10° S
Cosmos 2154 Rocket 4.0 01:42:28 10° N 01:48:44 83° W 01:54:56 10° S
Cosmos 1943 3.5 01:45:36 10° NW 01:50:51 42° WSW 01:56:04 10° S
Cosmos 2074 Rocket 4.0 01:47:30 10° NNW 01:53:44 67° W 01:59:55 10° S
IRIDIUM 114 4.3 01:49:00 10° N 01:54:11 67° W 01:59:21 10° S
Spot 2 4.4 01:50:42 10° S 01:55:37 63° WSW 02:00:28 10° NNW
Envisat 3.8 01:52:14 10° N 01:56:49 35° WNW 02:00:31 15° SW
Cosmos 2184 Rocket 4.0 01:51:48 10° NNW 01:57:52 64° W 02:03:58 10° S
Okean 2 4.2 01:57:27 17° SW 01:59:38 29° WNW 02:03:02 10° NNW
CENTAUR R/B 2.8 01:55:19 15° WSW 01:59:42 52° NW 02:06:24 10° NNE
IRIDIUM 103 4.5 01:58:12 10° NNW 02:03:18 55° W 02:08:22 10° SSW
Cosmos 1867 3.6 02:02:50 10° NW 02:08:14 61° WSW 02:13:34 10° SSE
METEOR-M 4.2 02:03:38 10° N 02:08:57 70° WNW 02:14:14 10° SSW
Cosmos 1844 Rocket 3.4 02:06:34 13° WSW 02:11:11 38° WNW 02:16:22 10° N
Cosmos 1733 Rocket 4.5 02:07:55 10° N 02:12:03 41° ENE 02:16:07 10° SSE
ADEOS II 2.5 02:09:19 10° N 02:14:18 46° WNW 02:19:15 10° SW
Cosmos 1603 3.8 02:09:35 10° NNW 02:15:15 61° WSW 02:20:52 10° S
Resurs 1-4 Rocket 3.2 02:15:22 10° N 02:19:47 28° WNW 02:24:11 10° WSW
AQUA 3.8 02:17:39 10° NNE 02:22:20 82° WNW 02:27:01 10° SSW
Okean 1-7 3.7 02:19:22 10° S 02:23:21 54° E 02:27:22 10° NNE
Cosmos 1812 0.7 02:25:50 10° N 02:27:34 78° E 02:29:16 10° S
Atlas Centaur 2 3.8 02:20:50 10° WSW 02:27:41 34° S 02:34:48 10° ESE
Cosmos 1933 Rocket 4.3 02:25:07 10° NNW 02:29:01 33° W 02:32:51 10° SSW
USA 307 4.3 02:31:05 10° WSW 02:32:04 11° SW 02:33:08 10° SSW
Cosmos 1538 Rocket 4.2 02:32:09 10° SW 02:37:10 54° WNW 02:42:14 10° NNE
